RH
22 30 36 30 26 22 34 35 48 40 31 37 30 27 58 55 56 73 84 82 86 88 79 58 32 34 41 45 57 56 64 74 62 81 74 70 72 69 75 67 62 62 62 63
26 30 24 20 20 21 22 27 34 34 25 30 27 25 46 58 58 71 82 83 81 82 90 69 36 39 42 46 55 56 58 77 62 72 69 66 65 68 66 68 71 68 64 60
30 25 19 20 22 22 22 25 26 28 23 22 25 29 40 52 62 64 71 67 64 80 90 73 44 42 44 46 54 55 57 70 58 63 64 69 65 74 75 76 79 69 61 68
28 19 20 20 21 22 26 21 22 24 28 36 26 38 25 51 62 58 67 72 68 64 76 71 62 49 46 46 45 54 55 59 58 62 62 59 56 63 72 78 77 74 64 72
30 25 24 22 22 20 25 22 24 27 28 29 27 31 29 48 53 52 54 67 71 73 80 86 57 46 45 49 46 52 56 54 53 59 56 57 62 63 63 78 76 74 77 73
24 18 20 21 17 18 23 26 28 30 29 40 26 32 27 32 22 38 42 49 71 73 72 66 59 55 50 56 61 52 56 54 57 63 62 62 60 64 66 74 71 81 83 80
24 22 18 17 23 24 29 36 56 50 51 49 22 28 37 28 23 34 40 46 49 74 76 70 72 63 57 50 67 52 54 54 59 64 66 61 59 64 69 65 69 76 84 84
31 39 23 18 24 29 31 35 63 48 52 41 25 32 32 25 23 25 29 35 38 39 65 68 72 64 65 55 67 50 52 52 59 65 69 60 67 66 65 63 67 70 72 74
37 32 17 16 19 22 32 40 32 43 46 50 39 29 23 22 26 30 32 35 42 40 48 65 60 65 73 66 67 49 50 50 58 65 72 63 70 70 66 67 67 69 76 70
30 37 23 17 20 26 28 26 41 64 56 59 40 34 31 29 26 30 35 44 43 45 54 49 52 63 69 69 67 51 48 56 61 67 73 60 75 73 67 73 82 77 72 66
24 40 26 26 28 31 30 34 39 43 61 60 60 46 26 26 25 28 38 44 46 48 53 54 54 64 68 63 68 60 51 58 67 68 75 78 81 77 86 75 74 74 71 67
27 42 44 30 24 20 25 33 34 68 44 56 62 57 26 28 26 27 38 42 50 49 49 66 67 72 68 71 72 62 53 63 64 66 69 83 82 86 77 74 74 72 70 68
40 44 54 38 31 30 28 28 33 45 50 47 60 50 22 22 26 26 43 46 49 51 50 61 68 65 70 70 65 61 66 70 67 64 76 83 87 80 77 78 74 69 68 67
48 43 48 54 45 42 38 30 30 35 58 52 49 40 29 25 25 25 34 49 51 51 48 55 61 64 68 67 65 63 67 70 65 69 77 87 83 78 80 76 73 71 64 60
40 50 49 42 30 27 26 31 29 38 39 46 33 31 26 24 24 27 42 43 44 46 48 52 58 65 68 69 66 64 63 63 62 65 74 83 80 81 78 76 74 66 60 63
43 50 48 51 33 27 28 25 26 27 27 26 28 26 21 21 22 23 34 37 42 43 44 47 51 56 62 66 71 67 68 66 60 75 82 77 77 76 75 71 69 70 71 64
52 56 57 63 39 36 48 37 30 29 26 24 30 36 41 40 33 25 21 37 40 41 44 46 48 56 62 65 68 73 69 67 75 78 75 76 76 72 71 66 68 72 68 67
61 61 68 76 58 78 42 26 24 28 37 49 49 52 52 51 45 41 41 36 37 38 41 44 50 58 65 68 74 75 67 71 75 75 74 73 71 69 65 65 67 73 70 68
44 56 78 83 79 57 43 35 34 33 45 52 58 56 54 49 47 49 41 42 36 40 40 44 51 57 63 64 69 67 69 70 72 75 73 68 68 65 62 64 69 69 69 74
30 51 67 72 81 81 54 32 25 30 58 54 57 61 61 55 79 69 47 43 36 36 41 50 54 55 59 65 64 65 68 68 72 71 68 64 64 61 63 67 67 68 68 65
50 58 72 83 80 64 39 28 28 51 74 62 60 62 63 67 66 59 46 48 39 46 46 48 51 56 58 61 61 65 67 68 66 64 62 62 60 60 61 65 68 64 67 64
53 69 84 79 82 76 59 49 67 73 66 60 61 63 64 62 58 51 47 49 43 49 46 53 58 58 61 58 57 64 68 63 59 58 58 58 56 48 55 62 68 62 66 68
45 56 68 60 68 67 62 65 63 62 58 58 59 57 50 55 51 50 51 48 49 52 46 50 57 58 62 59 56 60 63 54 55 56 56 53 52 51 56 61 67 66 66 66
43 36 54 57 49 51 64 54 57 44 50 45 46 48 48 49 44 41 47 50 49 50 53 53 55 60 63 58 54 56 53 50 51 54 55 51 54 56 54 52 58 64 67 72
49 43 48 50 43 48 42 37 33 33 37 38 40 41 41 43 39 42 46 58 54 52 50 51 52 58 58 55 55 52 48 48 50 51 49 51 56 56 62 70 70 65 76 66
44 46 56 62 43 43 39 35 30 30 34 35 38 37 32 31 34 33 36 53 54 60 55 51 51 54 52 50 54 49 46 45 47 49 50 57 59 61 62 73 80 81 84 83
Wind_Speed
5 3 6 12 11 14 7 7 9 7 14 2 14 14 11 8 7 10 9 16 23 20 5 10 18 18 18 16 14 15 11 8 8 3 5 5 5 5 4 5 7 4 4 6
4 8 11 12 14 11 8 7 7 9 9 14 12 9 12 14 9 9 11 13 16 6 2 13 16 20 20 19 15 13 13 8 7 4 4 4 5 4 6 5 5 5 5 4
8 11 15 16 12 9 8 4 4 3 7 8 6 4 5 5 5 7 9 10 12 17 10 9 13 20 19 20 18 15 14 10 9 7 5 4 4 5 3 4 4 4 6 6
8 18 16 13 13 8 6 6 4 5 6 3 3 5 9 9 7 11 7 11 12 25 21 11 12 20 20 18 17 16 15 12 10 8 7 11 7 7 4 4 4 5 6 6
12 10 8 6 6 5 6 5 3 3 6 6 11 4 3 7 5 8 10 10 11 18 25 23 20 22 19 18 18 15 16 14 12 9 10 10 7 5 7 4 8 6 5 7
10 7 6 8 8 6 2 3 7 6 3 4 10 4 7 3 10 5 5 11 17 26 27 27 16 17 17 15 15 15 17 15 10 8 9 10 10 8 9 7 7 5 4 4
9 10 11 7 5 3 2 6 4 4 4 7 10 6 6 6 5 10 13 9 12 17 16 17 17 17 19 21 17 16 19 16 11 9 9 11 11 10 13 13 9 8 5 4
9 9 9 8 8 6 4 8 8 5 4 6 5 4 6 9 6 9 7 6 7 9 19 20 18 19 19 20 18 18 19 17 12 9 9 10 9 7 10 12 10 8 8 8
6 10 10 14 9 12 8 3 8 6 4 1 4 8 9 5 9 9 8 8 5 6 5 23 20 17 18 20 20 20 20 17 13 11 9 9 7 10 11 11 11 9 10 10
7 4 6 6 9 7 10 5 3 4 5 3 2 5 5 5 7 8 8 9 7 3 2 6 21 19 19 19 18 18 18 17 15 12 8 10 8 8 11 8 9 13 12 13
12 8 14 4 3 8 3 3 2 4 5 6 3 6 7 5 4 8 9 8 9 6 3 3 15 17 19 18 18 15 15 15 15 14 8 8 6 7 7 11 12 13 14 13
5 7 7 10 6 5 7 7 8 7 6 4 6 8 8 6 5 7 12 10 8 7 3 6 12 16 17 16 16 16 16 15 16 14 12 8 8 10 12 12 14 14 14 11
1 0 4 7 8 1 5 5 6 4 4 5 5 7 5 11 9 8 11 10 10 8 7 8 8 12 13 14 15 14 11 13 14 14 12 10 10 12 13 14 14 13 14 11
5 2 7 9 7 4 3 4 4 6 4 5 6 5 7 9 9 7 7 11 10 9 9 7 8 8 12 15 15 14 12 14 14 13 11 11 12 13 12 13 13 13 12 12
4 2 1 2 4 9 8 6 10 8 7 6 8 8 7 8 7 5 10 14 15 13 10 9 8 7 7 12 13 13 15 15 15 14 13 14 13 13 14 13 12 12 11 9
0 2 2 3 5 7 7 7 6 5 10 13 11 13 10 11 9 5 12 15 15 15 14 11 10 9 8 10 10 14 13 13 15 13 14 15 15 15 14 14 12 11 9 10
3 5 3 3 4 7 9 4 4 5 5 5 6 3 9 9 8 8 7 14 16 16 16 15 13 11 8 8 8 10 11 13 14 15 15 15 15 15 14 13 12 10 11 10
3 3 4 3 2 6 7 3 5 7 5 7 8 11 10 10 12 5 14 12 8 17 16 15 12 11 10 8 9 9 12 13 15 14 14 15 16 16 14 13 12 8 9 10
2 3 2 5 3 6 9 6 2 4 3 6 7 10 11 16 9 6 20 17 10 14 18 17 15 14 12 11 11 12 10 11 13 14 15 15 15 16 15 13 12 10 9 7
6 5 6 2 3 8 3 9 10 5 2 6 10 9 11 12 6 6 20 19 23 15 14 14 14 13 14 10 12 12 11 11 13 14 14 14 15 15 14 12 12 9 9 10
6 3 8 4 5 7 5 8 3 4 3 5 7 6 6 5 1 9 14 19 14 5 12 13 14 13 12 12 13 11 9 10 11 13 13 13 13 13 11 11 7 9 8 8
7 6 5 3 3 9 9 7 5 3 4 6 5 5 5 5 8 11 14 15 16 5 10 9 8 9 8 11 12 9 8 9 12 13 13 13 12 10 10 12 7 9 8 8
3 6 4 6 5 4 5 7 1 0 3 4 4 3 5 6 8 10 10 12 14 4 6 9 9 9 7 8 9 9 8 13 13 13 13 12 10 10 11 11 9 8 8 8
4 7 3 6 5 6 8 4 1 4 4 5 5 5 4 3 6 7 10 10 10 10 4 6 9 9 7 7 8 8 11 14 14 13 10 10 10 10 9 8 7 8 8 7
1 5 4 2 13 6 11 10 8 8 6 7 5 4 6 5 5 4 6 7 7 6 7 7 10 10 11 9 8 10 14 15 13 11 10 9 9 10 7 5 3 6 1 8
2 2 2 3 2 3 3 4 5 7 7 8 8 8 7 5 6 6 6 6 6 6 7 6 8 11 12 11 8 11 15 15 14 12 9 7 8 8 7 8 8 15 7 13
Wind_Direction
249 162 227 237 230 244 157 183 198 249 242 149 249 272 163 178 144 172 180 115 161 191 353 282 150 149 150 152 145 156 155 167 156 134 141 133 138 136 117 130 140 137 101 100
249 235 234 253 265 264 285 234 199 242 251 201 234 243 148 174 196 183 148 160 178 101 18 276 156 153 157 160 154 158 163 161 160 146 143 135 145 136 143 140 139 142 119 96
195 236 226 241 256 273 294 298 306 286 315 334 355 300 162 205 53 141 187 144 148 165 157 229 185 164 159 164 157 164 169 162 165 167 152 122 134 94 107 136 123 138 129 97
225 237 241 238 238 214 247 291 319 284 22 291 64 268 288 151 171 208 168 168 167 166 161 176 201 177 169 167 159 158 169 167 173 182 166 164 161 153 154 144 140 140 134 123
240 253 271 284 232 284 238 281 320 29 351 18 315 50 347 104 217 231 212 198 156 146 155 176 206 177 174 164 162 158 164 177 182 193 167 158 148 137 150 131 135 138 124 116
239 258 235 238 254 244 298 352 17 20 47 349 266 160 294 141 296 175 195 199 158 163 167 184 189 167 167 160 165 157 162 180 188 176 163 153 154 153 149 142 147 142 129 120
274 259 261 250 300 270 194 79 10 351 352 227 263 261 214 177 218 181 187 193 172 172 170 168 189 169 172 167 169 164 165 181 187 166 166 162 168 154 152 156 155 148 138 128
224 276 247 230 183 183 251 147 150 212 217 262 350 308 264 222 138 86 94 110 153 155 175 188 197 180 169 164 171 174 172 177 179 165 169 174 158 158 158 163 159 157 156 142
193 231 249 212 193 161 239 244 203 184 266 77 290 318 337 92 101 107 110 95 76 33 113 189 191 178 169 169 176 173 175 174 169 169 165 174 156 156 163 164 165 159 135 129
248 291 270 288 171 177 157 191 31 358 158 216 276 297 259 110 164 145 136 142 138 137 266 139 180 167 173 174 175 173 176 168 164 167 160 175 165 155 163 160 127 132 130 129
201 152 271 57 285 153 144 131 99 122 138 174 183 251 193 108 147 158 169 162 167 188 222 61 145 162 164 169 173 169 169 160 162 167 153 147 161 158 125 127 132 130 129 133
184 172 195 237 248 237 165 173 163 130 263 205 168 250 293 306 272 171 169 170 159 159 182 82 136 152 161 162 173 171 171 164 166 162 161 155 151 129 130 132 130 131 132 135
195 250 86 353 339 282 174 215 178 141 130 219 208 260 253 276 289 199 166 166 159 161 151 118 129 153 158 169 171 170 159 155 159 160 158 151 142 137 134 129 130 132 132 132
74 123 148 187 211 192 194 192 209 158 135 220 214 252 293 295 296 251 200 161 155 164 161 157 156 170 160 169 170 170 157 156 162 162 161 140 137 133 130 131 131 131 132 133
105 142 150 227 245 243 252 213 225 204 223 191 255 247 235 256 264 278 159 167 171 173 170 167 168 177 157 158 166 163 162 163 165 163 153 141 136 128 127 128 127 130 133 131
174 196 58 307 293 295 290 284 248 250 235 246 255 258 234 242 262 249 193 187 178 178 175 170 171 169 168 167 157 167 168 168 160 149 142 139 136 134 131 130 132 133 128 126
168 136 109 254 298 315 287 216 266 283 294 242 260 327 14 5 335 311 280 184 190 183 173 177 177 165 154 148 134 138 139 139 140 141 145 143 137 134 137 135 138 135 136 133
47 80 120 188 79 248 246 193 262 282 59 58 51 21 11 335 302 356 21 5 224 177 174 177 167 155 146 135 121 126 134 137 139 143 144 141 140 140 141 137 138 135 142 144
152 83 59 131 200 286 298 304 309 53 43 35 60 26 4 347 324 353 358 336 304 217 180 175 166 154 141 142 138 137 141 142 146 152 150 148 144 143 145 147 150 150 148 140
203 162 128 128 168 223 180 216 278 312 171 36 60 33 11 19 32 306 331 330 323 176 163 148 145 142 142 141 138 146 157 160 158 158 153 145 145 150 148 152 158 155 152 153
193 170 186 159 217 272 335 329 341 197 203 72 79 58 23 46 244 290 326 341 340 61 117 128 138 147 145 138 140 151 158 173 150 146 139 141 146 148 147 149 147 152 149 144
170 166 181 127 174 272 335 39 73 168 77 83 57 55 32 359 340 346 347 350 342 65 95 90 100 119 127 137 146 147 150 137 137 135 141 144 145 155 148 146 140 145 141 140
217 159 192 161 204 143 68 104 121 248 145 116 104 88 56 18 352 345 340 349 345 301 110 110 127 128 127 134 146 144 146 136 135 138 146 151 152 145 148 146 145 141 145 151
322 29 101 106 230 203 158 136 243 247 99 79 50 32 44 44 9 344 333 344 356 339 139 136 138 141 142 144 148 143 143 143 144 149 146 143 137 137 141 145 148 152 159 162
296 23 29 326 31 48 38 43 20 11 25 34 22 28 6 3 1 305 304 308 328 350 309 164 164 156 154 151 161 153 147 149 151 144 144 139 138 140 125 90 134 148 141 181
46 50 67 244 355 144 299 353 349 358 359 9 30 4 349 343 322 319 300 278 301 321 318 249 164 156 158 161 157 151 152 152 150 147 145 144 145 134 127 114 86 53 77 108